Flag for Germany Weather past 2 weeks in Kempten, Bavaria, Germany

Now
59 °F

Rain. Low clouds.


Feels Like: 59 °F
Forecast: 57 / 68 °F
Wind: 2 mph from East

Location: Kempten

Current Time: Jul 26, 2014 at 10:17:48 PM

Latest Report: Jul 26, 2014 at 9:00 PM


Visibility: 2 mi

Pressure: 29.97 "Hg

Humidity: 98%

Dew point: 58 °F

Location of KemptenLocation

Historic Weather in Kempten — Graph

°F

Kempten temperature yesterday

Maximum temperature yesterday: 77 °F (at 5:00 PM)
Minimum temperature yesterday: 54 °F (at 6:00 AM)
Average temperature yesterday: 66 °F

Past Weeks' High & Low Weather Summary

 TemperatureHumidityPressure
High88 °F (Jul 19, 4:00 PM)100% (Jul 23, 4:00 AM)30.22 "Hg (Jul 23, 4:00 AM)
Low52 °F (Jul 18, 6:00 AM)24% (Jul 19, 6:00 PM)29.76 "Hg (Jul 20, 7:00 PM)
Average65 °F76%29.96 "Hg
* Reported Jul 11 9:00 PM — Jul 26 9:00 PM, Kempten, Weather by CustomWeather, © 2014

Note: Actual official high and low records may vary slightly from our data, if they occured in-between our weather recording intervals... More about our weather records

Advertising

Kempten weather history for previous 24 hours

 ConditionsComfort  
Time TempWeatherWind HumidityBarometerVisibility
9:00 PM
Jul 26
59 °FRain. Low clouds.2 mph98%29.97 "Hg2 mi
8:00 PM59 °FRain. Low clouds.2 mph98%29.94 "Hg1 mi
7:00 PM60 °FRain. Low clouds.2 mph98%29.91 "Hg1 mi
6:00 PM61 °FRain. Overcast.2 mph95%29.89 "Hg1 mi
4:00 PM64 °FLight rain. Overcast.2 mph86%29.88 "Hg3 mi
3:00 PM64 °FDrizzle. Overcast.2 mph82%29.89 "Hg6 mi
2:00 PM65 °FLight rain. Partly sunny.3 mph77%29.88 "Hg7 mi
1:00 PM65 °FOvercast.2 mph76%29.89 "Hg12 mi
12:00 PM64 °FOvercast.2 mph78%29.90 "Hg12 mi
11:00 AM65 °FDrizzle. Overcast.1 mph74%29.89 "Hg18 mi
10:00 AM62 °FOvercast.1 mph87%29.90 "Hg16 mi
9:00 AM60 °FLight rain. Overcast.2 mph89%29.91 "Hg12 mi
8:00 AM59 °FScattered clouds.2 mph90%29.89 "Hg16 mi
7:00 AM59 °FOvercast.2 mph92%29.89 "Hg14 mi
6:00 AM59 °FOvercast.2 mph91%29.89 "Hg15 mi
5:00 AM59 °FOvercast.2 mph90%29.89 "Hg17 mi
4:00 AM60 °FOvercast.2 mph89%29.90 "Hg18 mi
3:00 AM61 °FOvercast.2 mph81%29.90 "Hg22 mi
2:00 AM61 °FOvercast.2 mph78%29.91 "Hg15 mi
1:00 AM59 °FOvercast.2 mph91%29.91 "Hg9 mi
12:00 AM59 °FOvercast.1 mph92%29.91 "Hg8 mi
11:00 PM
Jul 25
63 °FClear.1 mph78%29.88 "Hg13 mi
10:00 PM66 °FPassing clouds.1 mph67%29.87 "Hg17 mi
Weather by CustomWeather, © 2014

See weather overviewHow to use our weather pages